TimeCDT,TemperatureF,Dew PointF,Humidity,Sea Level PressureIn,VisibilityMPH,Wind Direction,Wind SpeedMPH,Gust SpeedMPH,PrecipitationIn,Events,Conditions,WindDirDegrees,DateUTC
12:15 AM,44.6,39.2,81,29.82,10.0,WSW,4.6,-,N/A,,Clear,250,2013-10-07 05:15:00
12:34 AM,42.8,39.2,87,29.82,10.0,West,4.6,-,N/A,,Clear,260,2013-10-07 05:34:00
12:53 AM,42.8,39.2,87,29.82,10.0,WSW,3.5,-,N/A,,Clear,250,2013-10-07 05:53:00
1:15 AM,44.6,39.2,81,29.83,10.0,West,4.6,-,N/A,,Clear,280,2013-10-07 06:15:00
1:35 AM,42.8,39.2,87,29.83,10.0,West,4.6,-,N/A,,Clear,270,2013-10-07 06:35:00
1:53 AM,42.8,39.2,87,29.84,10.0,West,5.8,-,N/A,,Clear,270,2013-10-07 06:53:00
2:15 AM,44.6,39.2,81,29.84,10.0,West,4.6,-,N/A,,Clear,270,2013-10-07 07:15:00
2:34 AM,42.8,39.2,87,29.84,10.0,West,3.5,-,N/A,,Clear,280,2013-10-07 07:34:00
2:53 AM,42.8,39.2,87,29.84,10.0,Calm,Calm,-,N/A,,Clear,0,2013-10-07 07:53:00
3:15 AM,42.8,39.2,87,29.84,10.0,West,3.5,-,N/A,,Clear,280,2013-10-07 08:15:00
3:35 AM,42.8,39.2,87,29.84,10.0,WNW,3.5,-,N/A,,Clear,290,2013-10-07 08:35:00
3:50 AM,41.0,37.4,87,29.84,10.0,WNW,3.5,-,N/A,,Clear,300,2013-10-07 08:50:00
4:15 AM,41.0,39.2,93,29.85,10.0,WNW,3.5,-,N/A,,Clear,300,2013-10-07 09:15:00
4:35 AM,39.2,37.4,93,29.85,10.0,WNW,3.5,-,N/A,,Clear,290,2013-10-07 09:35:00
4:52 AM,39.2,37.4,93,29.86,10.0,WNW,4.6,-,N/A,,Clear,300,2013-10-07 09:52:00
5:15 AM,37.4,35.6,93,29.87,10.0,WNW,4.6,-,N/A,,Clear,300,2013-10-07 10:15:00
5:35 AM,39.2,37.4,93,29.87,10.0,NW,4.6,-,N/A,,Clear,310,2013-10-07 10:35:00
5:52 AM,37.4,37.4,100,29.88,10.0,WNW,3.5,-,N/A,,Clear,300,2013-10-07 10:52:00
6:15 AM,39.2,37.4,93,29.88,10.0,WNW,4.6,-,N/A,,Clear,300,2013-10-07 11:15:00
6:35 AM,37.4,35.6,93,29.89,10.0,Calm,Calm,-,N/A,,Clear,0,2013-10-07 11:35:00
6:52 AM,35.6,35.6,100,29.90,10.0,Calm,Calm,-,N/A,,Clear,0,2013-10-07 11:52:00
7:14 AM,35.6,35.6,100,29.91,10.0,Calm,Calm,-,N/A,,Clear,0,2013-10-07 12:14:00
7:34 AM,35.6,35.6,100,29.91,10.0,Calm,Calm,-,N/A,,Clear,0,2013-10-07 12:34:00
7:53 AM,37.4,35.6,93,29.92,10.0,Calm,Calm,-,N/A,,Clear,0,2013-10-07 12:53:00
8:15 AM,39.2,37.4,93,29.92,10.0,Calm,Calm,-,N/A,,Clear,0,2013-10-07 13:15:00
8:35 AM,42.8,39.2,87,29.92,10.0,Calm,Calm,-,N/A,,Clear,0,2013-10-07 13:35:00
8:53 AM,42.8,39.2,87,29.93,10.0,Calm,Calm,-,N/A,,Clear,0,2013-10-07 13:53:00
9:15 AM,46.4,39.2,76,29.94,10.0,Calm,Calm,-,N/A,,Clear,0,2013-10-07 14:15:00
9:35 AM,46.4,41.0,81,29.94,10.0,WNW,3.5,-,N/A,,Clear,300,2013-10-07 14:35:00
9:52 AM,50.0,42.8,76,29.94,10.0,WNW,3.5,-,N/A,,Clear,300,2013-10-07 14:52:00
10:14 AM,51.8,42.8,71,29.95,10.0,WNW,3.5,-,N/A,,Clear,290,2013-10-07 15:14:00
10:35 AM,53.6,42.8,67,29.95,10.0,WSW,3.5,-,N/A,,Clear,250,2013-10-07 15:35:00
10:53 AM,55.4,42.8,63,29.95,10.0,WNW,4.6,-,N/A,,Clear,300,2013-10-07 15:53:00
11:15 AM,-9999,-9999,N/A,-9999,-9999.0,North,-9999.0,-,N/A,,Unknown,0,2013-10-07 16:15:00
11:35 AM,59.0,41.0,51,29.96,10.0,NNW,5.8,-,N/A,,Clear,340,2013-10-07 16:35:00
11:53 AM,59.0,41.0,51,29.96,10.0,NNW,8.1,-,N/A,,Clear,330,2013-10-07 16:53:00
12:15 PM,59.0,39.2,48,29.96,10.0,WNW,5.8,-,N/A,,Clear,290,2013-10-07 17:15:00
12:34 PM,59.0,41.0,51,29.95,10.0,NNW,3.5,-,N/A,,Clear,330,2013-10-07 17:34:00
12:53 PM,59.0,39.2,48,29.96,10.0,NW,6.9,-,N/A,,Clear,310,2013-10-07 17:53:00
1:15 PM,60.8,39.2,45,29.96,10.0,NW,9.2,-,N/A,,Clear,310,2013-10-07 18:15:00
1:34 PM,60.8,39.2,45,29.95,10.0,WNW,3.5,-,N/A,,Clear,300,2013-10-07 18:34:00
1:53 PM,60.8,41.0,48,29.94,10.0,WNW,5.8,-,N/A,,Clear,290,2013-10-07 18:53:00
2:15 PM,62.6,41.0,45,29.94,10.0,West,3.5,-,N/A,,Clear,280,2013-10-07 19:15:00
2:34 PM,62.6,39.2,42,29.94,10.0,West,6.9,-,N/A,,Clear,270,2013-10-07 19:34:00
2:53 PM,62.6,39.2,42,29.93,10.0,WSW,5.8,-,N/A,,Clear,250,2013-10-07 19:53:00
3:15 PM,62.6,39.2,42,29.93,10.0,Calm,Calm,-,N/A,,Clear,0,2013-10-07 20:15:00
3:35 PM,62.6,39.2,42,29.93,10.0,WNW,6.9,-,N/A,,Clear,300,2013-10-07 20:35:00
3:53 PM,62.6,39.2,42,29.93,10.0,WNW,6.9,-,N/A,,Clear,290,2013-10-07 20:53:00
4:15 PM,62.6,39.2,42,29.93,10.0,WSW,4.6,-,N/A,,Clear,240,2013-10-07 21:15:00
4:34 PM,62.6,39.2,42,29.93,10.0,WSW,5.8,-,N/A,,Clear,240,2013-10-07 21:34:00
4:53 PM,62.6,37.4,39,29.92,10.0,SW,4.6,-,N/A,,Clear,220,2013-10-07 21:53:00
5:15 PM,62.6,37.4,39,29.92,10.0,West,6.9,-,N/A,,Clear,260,2013-10-07 22:15:00
5:35 PM,62.6,39.2,42,29.92,10.0,SW,4.6,-,N/A,,Clear,230,2013-10-07 22:35:00
5:52 PM,60.8,39.2,45,29.91,10.0,SW,3.5,-,N/A,,Clear,220,2013-10-07 22:52:00
6:14 PM,59.0,41.0,51,29.91,10.0,SSW,3.5,-,N/A,,Clear,200,2013-10-07 23:14:00
6:35 PM,57.2,41.0,55,29.92,10.0,Calm,Calm,-,N/A,,Clear,0,2013-10-07 23:35:00
6:53 PM,55.4,42.8,63,29.92,10.0,Calm,Calm,-,N/A,,Clear,0,2013-10-07 23:53:00
7:15 PM,51.8,42.8,71,29.92,10.0,Calm,Calm,-,N/A,,Clear,0,2013-10-08 00:15:00
7:35 PM,51.8,42.8,71,29.92,10.0,Calm,Calm,-,N/A,,Clear,0,2013-10-08 00:35:00
7:52 PM,48.2,41.0,76,29.92,10.0,Calm,Calm,-,N/A,,Clear,0,2013-10-08 00:52:00
8:15 PM,48.2,41.0,76,29.92,10.0,Calm,Calm,-,N/A,,Clear,0,2013-10-08 01:15:00
8:35 PM,48.2,39.2,71,29.91,10.0,Calm,Calm,-,N/A,,Clear,0,2013-10-08 01:35:00
8:53 PM,46.4,39.2,76,29.91,10.0,Calm,Calm,-,N/A,,Clear,0,2013-10-08 01:53:00
9:15 PM,46.4,39.2,76,29.91,10.0,Calm,Calm,-,N/A,,Clear,0,2013-10-08 02:15:00
9:35 PM,46.4,39.2,76,29.91,10.0,SE,3.5,-,N/A,,Clear,140,2013-10-08 02:35:00
9:53 PM,46.4,39.2,76,29.91,10.0,SSE,5.8,-,N/A,,Clear,150,2013-10-08 02:53:00
10:15 PM,46.4,39.2,76,29.90,10.0,SE,3.5,-,N/A,,Clear,140,2013-10-08 03:15:00
10:34 PM,46.4,39.2,76,29.90,10.0,SE,4.6,-,N/A,,Clear,140,2013-10-08 03:34:00
10:53 PM,46.4,39.2,76,29.90,10.0,SE,4.6,-,N/A,,Clear,140,2013-10-08 03:53:00
11:15 PM,44.6,39.2,81,29.89,10.0,SE,5.8,-,N/A,,Clear,140,2013-10-08 04:15:00
11:35 PM,46.4,39.2,76,29.89,10.0,SSE,5.8,-,N/A,,Clear,150,2013-10-08 04:35:00
11:52 PM,46.4,39.2,76,29.88,10.0,SE,4.6,-,N/A,,Clear,140,2013-10-08 04:52:00